"Pseudo-MPEC" for C1H5642

Created 2019 Dec 11 17:07:04 UT using Find_Orb

Click here for an explanation of pseudo-MPECs

 
 Astrometry: 
     C1H5642  C2019 11 26.21937 02 55 52.92 +36 38 27.9    ~BQ67 20.5 GVNEOCPG96
     C1H5642  C2019 11 26.22460 02 55 55.35 +36 40 26.9    ~BQ67       VNEOCPG96
     C1H5642  C2019 11 26.22980 02 55 57.81 +36 42 26.0    ~BQ67 20.4 GVNEOCPG96
     C1H5642  C2019 11 26.23501 02 56 00.23 +36 44 23.9    ~BQ67 20.8 GVNEOCPG96
     C1H5642 KC2019 11 26+hrMAstrometrymOCU#OM\9)$$^r*A+dl(`D]3BNr0!F#Pi2.s9DH21
     C1H5642 KC2019 11 262C6[uu9XLuJ2+la$V$4FmF.@:SR]UCr*Od1-7,;r1bYiOmRv;S*[H21
     C1H5642 KC2019 11 26m7h*G1Q)Q:9-?HrP0,t)[g[W\hr[S`eKB,TMHHf/H_Wt6BdKb+`sH21
     C1H5642 IC2019 11 26hOi`0CPredacted;wKL)clickYy+'@:)%L#on*Y?FeYs-.chereGJ04
     C1H5642 KC2019 11 26s`!forIexplanation7LuA+NfHAoNGrw;14Pmv]9^uy_x61M1p!lJ04

Station data:
(G96) Mt. Lemmon Survey  (N32.442754 W110.788720)  US/Arizona.  Observers T.
   A. Pruyne, B. M. Africano, E. J. Christensen, G. A. Farneth, D. C. Fuls,
   A. R. Gibbs, A. D. Grauer, H. Gröller, J. A. Johnson, R. A. Kowalski, S.
   M. Larson, G. J. Leonard, D. Rankin, R. L. Seaman, F. C. Shelly. 1.5-m
   reflector + 10K CCD.
(H21) Astronomical Research Observatory, Westfield  (N39.483057 W87.968270)
   US/Illinois. 0.76-m f/3.0 astrograph + CCD.
(J04) ESA Optical Ground Station, Tenerife  (N28.300924 W16.511830)  Canary
   Islands (Spain).  Observer D. Abreu. Measurers M. Micheli, D. Koschny, E.
   Schwab, M. Busch, A. Knöfel. 1.0-m f/4.4 reflector + CCD.

Orbital elements:  C1H5642
   Perihelion 2019 Oct 17.996441 +/- 0.0976 TT = 23:54:52 (JD 2458774.496441)
Epoch 2019 Nov 27.0 TT = JDT 2458814.5   Earth MOID: 0.0139   AutoNEOCP
M  19.64378346 +/- 0.09             (J2000 ecliptic)
n   0.49105089 +/- 0.00163          Peri.  313.20499 +/- 0.15
a   1.59117657 +/- 0.00352          Node    60.74055 +/- 0.0058
e   0.4267662 +/- 0.00135           Incl.   14.61203 +/- 0.033
P   2.01/733.11d           H 27.1   G  0.15   U  8.4  
q 0.91211616 +/- 0.00071    Q 2.27023698 +/- 0.00709
From 9 observations 2019 Nov. 26 (16.7 hr); mean residual 0".22
Residuals in arcseconds: 
191126 G96  .21+  .20-    191126 G96  .18-  .30+    191126 H21  .16-  .28-    
191126 G96  .16-  .46-    191126 H21  .01-  .02-    191126 J04  .09-  .15-    
191126 G96  .07+  .44+    191126 H21  .22+  .22+    191126 J04  .09+  .15+    

Ephemerides (geocentric):
Date (UTC) HH   RA              Dec         delta   r     elong  mag " sig PA
---- -- -- --  -------------   -----------  ------ ------ -----  --- ---- ---
2019 12 11 17  03 55 45.725   +58 10 41.88  .14276 1.1009 142.2 24.4 85.3  30
2019 12 11 18  03 55 50.052   +58 11 08.64  .14307 1.1012 142.2 24.4 85.4  30
2019 12 11 19  03 55 54.370   +58 11 35.16  .14339 1.1014 142.2 24.4 85.5  30
2019 12 11 20  03 55 58.679   +58 12 01.44  .14370 1.1016 142.2 24.4 85.6  30
2019 12 11 21  03 56 02.979   +58 12 27.49  .14401 1.1019 142.2 24.5 85.6  30
2019 12 11 22  03 56 07.271   +58 12 53.30  .14432 1.1021 142.2 24.5 85.7  30
2019 12 11 23  03 56 11.554   +58 13 18.88  .14464 1.1024 142.2 24.5 85.8  30
2019 12 12 00  03 56 15.828   +58 13 44.22  .14495 1.1026 142.1 24.5 85.9  30
2019 12 12 01  03 56 20.094   +58 14 09.33  .14526 1.1029 142.1 24.5 86.0  30
2019 12 12 02  03 56 24.351   +58 14 34.22  .14558 1.1031 142.1 24.5 86.1  30
2019 12 12 03  03 56 28.601   +58 14 58.87  .14589 1.1034 142.1 24.5 86.2  30
2019 12 12 04  03 56 32.841   +58 15 23.30  .14620 1.1036 142.1 24.5 86.3  30
2019 12 12 05  03 56 37.074   +58 15 47.50  .14652 1.1038 142.1 24.5 86.4  30
2019 12 12 06  03 56 41.298   +58 16 11.48  .14683 1.1041 142.1 24.5 86.5  30
2019 12 12 07  03 56 45.514   +58 16 35.23  .14714 1.1043 142.1 24.5 86.6  30
2019 12 12 08  03 56 49.722   +58 16 58.76  .14746 1.1046 142.1 24.5 86.7  30
2019 12 12 09  03 56 53.922   +58 17 22.07  .14777 1.1048 142.0 24.5 86.8  30
2019 12 12 10  03 56 58.114   +58 17 45.16  .14809 1.1051 142.0 24.5 86.9  30
2019 12 12 11  03 57 02.298   +58 18 08.03  .14840 1.1053 142.0 24.5 87.0  30
2019 12 12 12  03 57 06.474   +58 18 30.69  .14871 1.1055 142.0 24.5 87.1  30
2019 12 12 13  03 57 10.643   +58 18 53.12  .14903 1.1058 142.0 24.5 87.1  30
2019 12 12 14  03 57 14.803   +58 19 15.34  .14934 1.1060 142.0 24.5 87.2  30
2019 12 12 15  03 57 18.956   +58 19 37.35  .14966 1.1063 142.0 24.5 87.3  30
2019 12 12 16  03 57 23.101   +58 19 59.15  .14997 1.1065 142.0 24.5 87.4  30
2019 12 12 17  03 57 27.239   +58 20 20.73  .15028 1.1068 142.0 24.6 87.5  30
2019 12 12 18  03 57 31.369   +58 20 42.10  .15060 1.1070 142.0 24.6 87.6  30
2019 12 12 19  03 57 35.492   +58 21 03.27  .15091 1.1073 142.0 24.6 87.7  30
2019 12 12 20  03 57 39.607   +58 21 24.22  .15123 1.1075 141.9 24.6 87.8  30
2019 12 12 21  03 57 43.714   +58 21 44.97  .15154 1.1077 141.9 24.6 87.9  30
2019 12 12 22  03 57 47.815   +58 22 05.51  .15186 1.1080 141.9 24.6 87.9  30
2019 12 12 23  03 57 51.908   +58 22 25.85  .15217 1.1082 141.9 24.6 88.0  30
2019 12 13 00  03 57 55.994   +58 22 45.99  .15249 1.1085 141.9 24.6 88.1  30
2019 12 13 01  03 58 00.072   +58 23 05.92  .15280 1.1087 141.9 24.6 88.2  30
2019 12 13 02  03 58 04.144   +58 23 25.65  .15311 1.1090 141.9 24.6 88.3  30
2019 12 13 03  03 58 08.208   +58 23 45.17  .15343 1.1092 141.9 24.6 88.4  30
2019 12 13 04  03 58 12.266   +58 24 04.50  .15374 1.1095 141.9 24.6 88.5  30
2019 12 13 05  03 58 16.316   +58 24 23.63  .15406 1.1097 141.9 24.6 88.5  30
2019 12 13 06  03 58 20.360   +58 24 42.56  .15437 1.1099 141.8 24.6 88.6  30
2019 12 13 07  03 58 24.396   +58 25 01.30  .15469 1.1102 141.8 24.6 88.7  30
2019 12 13 08  03 58 28.426   +58 25 19.84  .15501 1.1104 141.8 24.6 88.8  30
2019 12 13 09  03 58 32.449   +58 25 38.19  .15532 1.1107 141.8 24.6 88.9  30
2019 12 13 10  03 58 36.465   +58 25 56.34  .15564 1.1109 141.8 24.6 89.0  30
2019 12 13 11  03 58 40.475   +58 26 14.30  .15595 1.1112 141.8 24.6 89.0  30
2019 12 13 12  03 58 44.477   +58 26 32.07  .15627 1.1114 141.8 24.6 89.1  30
2019 12 13 13  03 58 48.474   +58 26 49.65  .15658 1.1117 141.8 24.7 89.2  30
2019 12 13 14  03 58 52.463   +58 27 07.04  .15690 1.1119 141.8 24.7 89.3  30
2019 12 13 15  03 58 56.447   +58 27 24.24  .15721 1.1122 141.8 24.7 89.4  30
2019 12 13 16  03 59 00.423   +58 27 41.25  .15753 1.1124 141.8 24.7 89.5  30